{"data":{"norad_id":63846,"epoch":"2026-05-24T23:40:38.887680Z","epoch_age_seconds":83168,"freshness":"FRESH","line1":"1 63846U 25093L   26144.98656120  .00026932  00000+0  98429-3 0  9996","line2":"2 63846  43.0040   6.7717 0001484 274.2016  85.8666 15.27592134 59425","mean_motion":15.27592134,"eccentricity":0.0001484,"inclination_deg":43.004,"raan_deg":6.7717,"arg_perigee_deg":274.2016,"mean_anomaly_deg":85.8666,"bstar":0.00098429,"rev_number":5942,"period_min":94.265999932152,"perigee_km":481.99456809419,"apogee_km":484.03095734376,"semimajor_km":6861.149762719,"source":"CELESTRAK","updated_at":"2026-05-25T13:38:20.148136Z"}}